TimeEEST,TemperatureF,Dew PointF,Humidity,Sea Level PressureIn,VisibilityMPH,Wind Direction,Wind SpeedMPH,Gust SpeedMPH,PrecipitationIn,Events,Conditions,WindDirDegrees,DateUTC
12:50 AM,51.8,46.4,82,30.09,6.2,ESE,2.3,-,N/A,,Scattered Clouds,110,2013-05-17 21:50:00
1:50 AM,51.8,46.4,82,30.09,6.2,ESE,4.6,-,N/A,,Scattered Clouds,120,2013-05-17 22:50:00
3:00 AM,52,46,74,,6,South,4.6,,,,Partly Cloudy,180,2013-05-18 00:00:00
3:50 AM,50.0,46.4,87,30.09,6.2,Variable,2.3,-,N/A,,Scattered Clouds,0,2013-05-18 00:50:00
4:50 AM,48.2,44.6,87,30.09,6.2,Calm,Calm,-,N/A,,Mostly Cloudy,0,2013-05-18 01:50:00
5:50 AM,48.2,46.4,93,30.09,6.2,Variable,1.2,-,N/A,,Scattered Clouds,0,2013-05-18 02:50:00
6:50 AM,59.0,46.4,63,30.09,6.2,Variable,1.2,-,N/A,,Scattered Clouds,0,2013-05-18 03:50:00
7:50 AM,59.0,46.4,63,30.06,6.2,Variable,2.3,-,N/A,,Scattered Clouds,0,2013-05-18 04:50:00
8:50 AM,59.0,46.4,63,30.09,6.2,WNW,6.9,-,N/A,,Scattered Clouds,300,2013-05-18 05:50:00
9:00 AM,59,48,59,,6,WNW,6.9,,,,Partly Cloudy,300,2013-05-18 06:00:00
9:50 AM,59.0,46.4,63,30.09,6.2,West,4.6,-,N/A,,Scattered Clouds,270,2013-05-18 06:50:00
10:50 AM,60.8,46.4,59,30.09,6.2,West,3.5,-,N/A,,Scattered Clouds,270,2013-05-18 07:50:00
11:50 AM,60.8,46.4,59,30.09,6.2,West,5.8,-,N/A,,Scattered Clouds,280,2013-05-18 08:50:00
12:50 PM,62.6,46.4,55,30.06,6.2,West,9.2,-,N/A,,Mostly Cloudy,280,2013-05-18 09:50:00
1:50 PM,62.6,48.2,59,30.04,6.2,West,11.5,-,N/A,,Mostly Cloudy,280,2013-05-18 10:50:00
2:50 PM,64.4,50.0,59,30.04,6.2,WNW,11.5,-,N/A,,Mostly Cloudy,300,2013-05-18 11:50:00
3:00 PM,64,49,48,,6,WNW,11.5,,,,Partly Cloudy,300,2013-05-18 12:00:00
3:50 PM,62.6,48.2,59,30.01,6.2,WNW,16.1,-,N/A,,Mostly Cloudy,300,2013-05-18 12:50:00
4:50 PM,60.8,44.6,55,30.04,6.2,NE,6.9,-,N/A,,Mostly Cloudy,40,2013-05-18 13:50:00
5:50 PM,60.8,42.8,52,30.04,6.2,West,5.8,-,N/A,,Mostly Cloudy,260,2013-05-18 14:50:00
6:44 PM,57.2,46.4,67,30.06,6.2,West,31.1,-,N/A,,Mostly Cloudy,280,2013-05-18 15:44:00
6:50 PM,57.2,46.4,67,30.06,6.2,WNW,31.1,-,N/A,,Mostly Cloudy,300,2013-05-18 15:50:00
7:50 PM,53.6,41.0,62,30.06,6.2,East,3.5,-,N/A,,Mostly Cloudy,80,2013-05-18 16:50:00
8:50 PM,51.8,42.8,71,30.06,6.2,East,6.9,-,N/A,,Mostly Cloudy,80,2013-05-18 17:50:00
9:00 PM,51,42,62,,6,East,6.9,,,,Mostly Cloudy,80,2013-05-18 18:00:00
9:50 PM,53.6,42.8,67,30.06,6.2,Variable,1.2,-,N/A,,Mostly Cloudy,0,2013-05-18 18:50:00
10:50 PM,51.8,42.8,71,30.04,6.2,Variable,2.3,-,N/A,,Mostly Cloudy,0,2013-05-18 19:50:00
11:50 PM,50.0,42.8,76,30.04,6.2,Variable,1.2,-,N/A,,Mostly Cloudy,0,2013-05-18 20:50:00